Weather in Polovodovo

Russia / Perm Krai     59°39′23″N   57°04′19″E
temp.,
°C
wind,
m/s
gust,
m/s
humid.,
%
clouds,
%
prec.,
mm/h
press.,
hPa
HPBL,
m
3 march, wed
wed323:00−9s41094100 1.4 993435
02:00−9s4995100 0.3 992281
05:00−7ssw499699 0.6 992306
08:00−6wsw3796100 1.4 992276
11:00−4w3694100 1.9 993481
14:00−3w359099 0.2 993643
17:00−3w369499 0.4 994520
20:00−6w2697100 0.2 995213
4 march, thu
thu423:00−8wsw2397100 0.2 99560
02:00−10sw259699 0.1 994123
05:00−10sw2596100 0.3 994159
08:00−11ssw259797 0.3 993146
11:00−9sw359498 0.6 993296
14:00−7sw3592100 0.3 992530
17:00−6ssw3690100 0.4 992609
20:00−9s2597100 0.3 992172
5 march, fri
fri523:00−9sse2297100 0.5 99244
02:00−10sse1297100 0.1 99221
05:00−10s129798 0.5 99421
08:00−11w1297100 0.5 99539
11:00−10wnw239599 0.6 997239
14:00−8w239098 0.1 998536
17:00−8w248999 0.2 999570
20:00−12wnw2597100 0.2 1001142
6 march, sat
sat623:00−16wnw229891 0.2 100323
02:00−17wnw239978 0.1 100445
05:00−19w229984 0.1 100538
08:00−19w2399100 0.1 100778
11:00−15wsw239499 0.2 1007330
14:00−12wsw3488100 0.1 1007738
17:00−12wsw2486100 0.2 1007664
20:00−15s2297100 0.1 100755
7 march, sun
sun723:00−15sse269799 0.3 1007211
02:00−16wsw1298100 0.3 100650
05:00−18wnw2697100 0.4 1007193
08:00−25w229860 0.0 100720
11:00−19wsw129242 0.0 1007245
14:00−15ssw238595 0.0 1007560
17:00−14ssw359097 0.1 1007680
20:00−18s239781 0.1 100824